Showing default

XINGYUN-2 01, 45602

Orbit data source: Space-Track

XINGYUN-2 01, 45602 is a payload satellite owned by Xingyun (CN) in SSO that was launched on Tue, 12 May 2020 UTC via a KUAIZHOU-1A launch vehicle from the Jiuquan Satellite Launch Center, China (JSC). Payload-class satellites include a variety of spacecraft equipped with specific instruments for various scientific and technological missions. These include communications satellites like Starlink; space stations such as the ISS; scientific satellites like the Hubble; Earth observation satellites from companies like Planet Labs, Umbra, and HawkEye 360; GPS; miniature CubeSats for education and research; and military/defense satellites.

Loading next visibility...
Identifier
45602, 2020-028A
Orbit
SSO
Last TLE update
10 hours ago
Origin
Manufacturer
Sanjiang
Mission
Operational Commercial Communications
Bus & Motor
XINGYUN, Unknown motor
Mass
93 kg wet, ~85 kg dry
Launch date (UTC)
2020-05-12 (5 years ago)
Launch vehicle
KUAIZHOU-1A
Launch site
Jiuquan Satellite Launch Center, China (JSC)
Object type
Payload
Rocket body
Debris
Shape & HBR
Box, Unknown HBR
Radar Cross Section
0.569 m², Medium (>0.1 m² and < 1m²)

Expand to show TLE details & history

TLE from 10 hours ago
0 XINGYUN-2 01
1 45602U 20028A   25189.91668618  .00001776  00000-0  11440-3 0  9993
2 45602  97.4656 185.1298 0008172 312.4931  47.5607 15.09590649283012
Epoch: 2025-07-08T22:00Z
TLE epoch observation values (Epoch: 2025-07-08T22:00:01.685Z)
Latitude
-0.00007°
Longitude
-71.98202°
Altitude
536.712 km
Speed
7.596 km/s
True Right ascension
12h 20m 31s
True Declination
0° 00' 00"
Sunlit
Object was in daylight at epoch
Visualization orbit readout
Latitude
56.34676°
Longitude
-82.87359°
Altitude
548.435 km
Speed
7.592 km/s
Apparent Right ascension
09h 32m 51s
Apparent Declination
12° 07' 57"
Sunlit
Object is in daylight
Visualization observer readout
Local Sidereal Time
19:57:21
Azimuth
331.699° NNW
Elevation
-33.424°
Doppler factor
1
Orbital elements
Apogee altitude
540.081 km
Perigee altitude
528.783 km
Semi-major axis
6,912.569 km
Eccentricity
0.00082
Inclination
97.4656°
RAAN
185.1298°
Arg. of periapsis
312.4931°
True anomaly
Unknown
Mean anomaly
47.5607°
Eccentric anomaly
Unknown
Mean motion
3.77645 °/min
Orbital period
95.33 mins
BSTAR
0.0001144
Loading maneuver chart data...
Loading SW <> Apogee altitude chart data...
Loading historical data...
Loading historical data...
Loading historical data...
Loading historical data...
Loading historical data...
Loading historical data...
Loading historical data...
Other satellites on launch #28 in the year 2020 (2020-05-12 UTC)

XINGYUN-2 01 Visibility forecast

Observer location: undefined°, undefined°

Span
Click to sort rows by Start time (UTC) header in descending order
Start Az.
Max El. time (UTC)
Max El. Az.
Max El.
End time (UTC)
End Az.
5 mins2025-07-09 12:53:48.056Z351.884° N2025-07-09 12:55:48.056Z290.45° WNW38.226°2025-07-09 12:58:48.056Z212.85° SW
6 mins2025-07-09 23:35:48.056Z153.689° SSE2025-07-09 23:37:48.056Z98.679° ESE42.521°2025-07-09 23:41:48.056Z353.416° N
|